Torna al catalogo

DELTA 1 DEB

AttivoPO
NORAD 21289·DEBRIS·🇺🇸 United States

Lanciato Jun 12, 1975 da Vandenberg Space Force Base

Loading…

Prossimi Passaggi (prossime 24 ore)

TLE

AggiornatoSource: Space-Track

Epoca: Sep 14, 2026, 10:18 UTC

1 21289U 75052AA  26257.42971762  .00000486  00000-0  15119-2 0  9998
2 21289  99.9014 235.6376 0245686 167.6044 347.2258 13.00077561676142

Traccia DELTA 1 DEB in tempo reale con AllMySat

Download on the App Store